Location: Stockholm
(59.3330°N, 18.0500°E)
Time: 13:01:04
(UTC+01:00)

Envisat - Pass Details

Date: 29 November 2022
Orbit: 763 x 765 km, 98.2° (Epoch: 29 January)

Event Time Altitude Azimuth Distance (km) Brightness Sun altitude
Rises 15:49:55 0° 194° (SSW) 3,225 7.0 -6.0°
Reaches altitude 10° 15:52:27 10° 204° (SSW) 2,303 6.5 -6.2°
Maximum altitude 15:56:58 32° 267° (W) 1,304 5.0 -6.7°
Drops below altitude 10° 16:01:32 10° 330° (NNW) 2,319 5.5 -7.2°
Sets 16:04:06 0° 341° (NNW) 3,250 6.1 -7.5°
